TimeEDT,TemperatureF,Dew PointF,Humidity,Sea Level PressureIn,VisibilityMPH,Wind Direction,Wind SpeedMPH,Gust SpeedMPH,PrecipitationIn,Events,Conditions,WindDirDegrees,DateUTC
12:55 AM,57.0,54.0,89,29.99,10.0,Calm,Calm,-,0.02,,Overcast,0,2012-10-04 04:55:00
1:55 AM,57.0,54.0,89,29.99,6.0,Calm,Calm,-,N/A,,Overcast,0,2012-10-04 05:55:00
2:17 AM,55.9,53.1,90,29.99,6.0,Calm,Calm,-,0.00,,Overcast,0,2012-10-04 06:17:00
2:55 AM,57.0,54.0,89,29.97,7.0,Calm,Calm,-,0.00,,Overcast,0,2012-10-04 06:55:00
3:03 AM,57.0,54.0,89,29.97,7.0,Calm,Calm,-,N/A,,Overcast,0,2012-10-04 07:03:00
3:55 AM,57.0,54.0,89,29.96,2.0,Calm,Calm,-,0.00,Rain,Light Rain,0,2012-10-04 07:55:00
4:04 AM,57.0,54.0,89,29.96,1.8,ENE,3.5,-,0.01,Rain,Light Rain,60,2012-10-04 08:04:00
4:11 AM,57.0,54.0,89,29.96,2.0,Calm,Calm,-,0.01,Rain,Light Rain,0,2012-10-04 08:11:00
4:29 AM,57.0,54.0,89,29.96,2.5,Calm,Calm,-,0.02,Rain,Light Rain,0,2012-10-04 08:29:00
4:55 AM,57.0,55.0,93,29.95,2.5,Calm,Calm,-,0.02,Rain,Light Rain,0,2012-10-04 08:55:00
5:02 AM,57.0,55.0,93,29.95,2.5,Calm,Calm,-,0.01,Rain,Light Rain,0,2012-10-04 09:02:00
5:18 AM,57.0,55.0,93,29.95,2.0,Calm,Calm,-,0.01,Rain,Light Rain,0,2012-10-04 09:18:00
5:28 AM,55.9,55.0,97,29.95,1.5,Calm,Calm,-,0.02,Rain,Light Rain,0,2012-10-04 09:28:00
5:55 AM,57.0,55.0,93,29.94,2.0,Calm,Calm,-,0.04,Rain,Light Rain,0,2012-10-04 09:55:00
6:17 AM,57.0,55.0,93,29.94,4.0,NNE,3.5,-,0.02,Rain,Light Rain,30,2012-10-04 10:17:00
6:36 AM,57.0,55.0,93,29.94,6.0,Calm,Calm,-,0.02,,Overcast,0,2012-10-04 10:36:00
6:46 AM,57.0,55.0,93,29.94,5.0,Calm,Calm,-,0.02,Rain,Rain,0,2012-10-04 10:46:00
6:55 AM,57.0,55.0,93,29.93,2.5,Calm,Calm,-,0.04,Rain,Rain,0,2012-10-04 10:55:00
7:08 AM,55.9,54.0,93,29.93,2.5,Calm,Calm,-,0.05,Rain,Rain,0,2012-10-04 11:08:00
7:18 AM,55.9,54.0,93,29.93,4.0,NE,3.5,-,0.06,Rain,Light Rain,50,2012-10-04 11:18:00
7:55 AM,57.0,54.0,89,29.93,9.0,Calm,Calm,-,0.07,,Overcast,0,2012-10-04 11:55:00
8:55 AM,55.9,52.0,87,29.93,10.0,North,4.6,-,N/A,,Overcast,350,2012-10-04 12:55:00
9:29 AM,57.0,53.1,87,29.92,10.0,North,5.8,-,N/A,,Overcast,360,2012-10-04 13:29:00
9:55 AM,57.9,52.0,81,29.91,10.0,North,5.8,-,N/A,,Overcast,360,2012-10-04 13:55:00
10:55 AM,60.1,52.0,75,29.92,10.0,West,3.5,-,N/A,,Partly Cloudy,270,2012-10-04 14:55:00
11:55 AM,62.1,53.1,72,29.91,10.0,SW,4.6,-,N/A,,Mostly Cloudy,230,2012-10-04 15:55:00
12:41 PM,64.0,53.1,67,29.91,10.0,West,5.8,-,N/A,,Scattered Clouds,270,2012-10-04 16:41:00
12:55 PM,64.0,50.0,60,29.90,10.0,WSW,9.2,-,N/A,,Partly Cloudy,240,2012-10-04 16:55:00
1:50 PM,66.2,53.6,64,29.90,10.0,Variable,5.8,-,N/A,,Mostly Cloudy,0,2012-10-04 17:50:00
1:55 PM,66.9,53.1,61,29.89,10.0,WSW,8.1,-,N/A,,Mostly Cloudy,250,2012-10-04 17:55:00
2:15 PM,68.0,51.1,55,29.89,10.0,SSW,9.2,-,N/A,,Scattered Clouds,210,2012-10-04 18:15:00
2:55 PM,68.0,51.1,55,29.88,10.0,Variable,3.5,-,N/A,,Clear,0,2012-10-04 18:55:00
3:55 PM,69.1,51.1,53,29.85,10.0,South,6.9,-,N/A,,Clear,190,2012-10-04 19:55:00
4:55 PM,69.1,52.0,54,29.83,10.0,South,10.4,-,N/A,,Mostly Cloudy,190,2012-10-04 20:55:00
5:55 PM,68.0,52.0,56,29.84,10.0,Variable,4.6,-,N/A,,Clear,0,2012-10-04 21:55:00
6:55 PM,64.9,52.0,63,29.82,10.0,SSE,9.2,-,N/A,,Mostly Cloudy,150,2012-10-04 22:55:00
7:55 PM,63.0,55.0,75,29.82,10.0,SSE,11.5,-,0.00,Rain,Light Rain,150,2012-10-04 23:55:00
8:55 PM,61.0,55.0,81,29.82,10.0,SSE,5.8,-,0.00,,Overcast,160,2012-10-05 00:55:00
9:55 PM,60.1,54.0,80,29.81,10.0,South,8.1,-,N/A,,Partly Cloudy,190,2012-10-05 01:55:00
10:55 PM,60.1,52.0,75,29.79,10.0,SSW,11.5,-,N/A,,Partly Cloudy,210,2012-10-05 02:55:00
11:55 PM,57.9,50.0,75,29.80,10.0,WNW,12.7,20.7,N/A,,Scattered Clouds,300,2012-10-05 03:55:00